Terminal Aerodrome Forecast
Issued by NWS

Home | Current Version | Previous Version | Text Only | Print | Product List | Glossary On
Versions: 1 2 3 4 5 6 7 8 9 10 11 12 13 14 15 16 17
000
FTUS46 KHNX 282328
TAFFAT
TAF
KFAT 282328Z 2900/2924 00000KT 6SM HZ FEW070 BKN200
     FM290600 VRB03KT 3SM BR BKN200
     FM290800 00000KT 1SM BR SCT002
      TEMPO 2909/2912 1/2SM FG VV002
     FM291200 00000KT 1/2SM FG VV001
     FM291700 00000KT 2SM BR BKN005
     FM291900 VRB03KT 2SM BR SCT005 BKN200
     FM292100 29005KT 4SM HZ BKN200=

USA.gov is the U.S. government's official web portal to all federal, state and local government web resources and services.